Time,TemperatureF,DewpointF,PressureIn,WindDirection,WindDirectionDegrees,WindSpeedMPH,WindSpeedGustMPH,Humidity,HourlyPrecipIn,Conditions,Clouds,dailyrainin,SoftwareType,DateUTC
2013-12-01 00:00:00,31.0,23.0,30.37,SE,139,5.0,5.0,72,0.00,,,0.01,Wunderground v.1.15,2013-12-01 05:00:00,
2013-12-01 00:10:00,31.2,23.5,30.37,ESE,117,3.0,3.0,73,0.00,,,0.00,Wunderground v.1.15,2013-12-01 05:10:00,
2013-12-01 00:20:00,31.3,24.0,30.36,ESE,115,3.0,6.0,74,0.00,,,0.00,Wunderground v.1.15,2013-12-01 05:20:00,
2013-12-01 00:30:00,31.6,24.3,30.36,SE,126,4.0,4.0,74,0.00,,,0.00,Wunderground v.1.15,2013-12-01 05:30:00,
2013-12-01 00:40:00,31.5,24.5,30.36,ESE,116,3.0,3.0,75,0.00,,,0.00,Wunderground v.1.15,2013-12-01 05:40:00,
2013-12-01 00:50:00,31.6,24.9,30.35,ESE,112,4.0,6.0,76,0.00,,,0.00,Wunderground v.1.15,2013-12-01 05:50:00,
2013-12-01 01:00:00,32.1,25.4,30.34,SE,131,6.0,6.0,76,0.00,,,0.00,Wunderground v.1.15,2013-12-01 06:00:00,
2013-12-01 01:10:00,32.4,25.0,30.34,SE,126,5.0,5.0,74,0.00,,,0.00,Wunderground v.1.15,2013-12-01 06:10:00,
2013-12-01 01:20:00,32.5,25.5,30.33,ESE,109,5.0,5.0,75,0.00,,,0.00,Wunderground v.1.15,2013-12-01 06:20:00,
2013-12-01 01:30:00,32.4,25.7,30.33,SE,135,5.0,14.0,76,0.00,,,0.00,Wunderground v.1.15,2013-12-01 06:30:00,
2013-12-01 01:40:00,32.7,26.0,30.33,ESE,121,5.0,5.0,76,0.00,,,0.00,Wunderground v.1.15,2013-12-01 06:40:00,
2013-12-01 01:50:00,32.7,26.0,30.33,ENE,75,5.0,14.0,76,0.00,,,0.00,Wunderground v.1.15,2013-12-01 06:50:00,
2013-12-01 02:00:00,32.8,26.1,30.33,ESE,121,5.0,5.0,76,0.00,,,0.00,Wunderground v.1.15,2013-12-01 07:00:00,
2013-12-01 02:10:00,32.8,26.1,30.33,SE,131,3.0,3.0,76,0.00,,,0.00,Wunderground v.1.15,2013-12-01 07:10:00,
2013-12-01 02:20:00,32.5,26.4,30.33,SE,145,2.0,2.0,78,0.00,,,0.00,Wunderground v.1.15,2013-12-01 07:20:00,
2013-12-01 02:30:00,32.5,26.4,30.32,ESE,121,1.0,1.0,78,0.00,,,0.00,Wunderground v.1.15,2013-12-01 07:30:00,
2013-12-01 02:40:00,32.4,26.6,30.32,SE,145,1.0,1.0,79,0.00,,,0.00,Wunderground v.1.15,2013-12-01 07:40:00,
2013-12-01 02:50:00,32.2,26.1,30.32,SSE,158,0.0,14.0,78,0.00,,,0.00,Wunderground v.1.15,2013-12-01 07:50:00,
2013-12-01 03:00:00,31.8,26.0,30.32,SSE,158,0.0,14.0,79,0.00,,,0.00,Wunderground v.1.15,2013-12-01 08:00:00,
2013-12-01 03:10:00,31.5,25.7,30.32,SSE,158,0.0,14.0,79,0.00,,,0.00,Wunderground v.1.15,2013-12-01 08:10:00,
2013-12-01 03:20:00,31.5,26.0,30.31,SSE,158,0.0,14.0,80,0.00,,,0.00,Wunderground v.1.15,2013-12-01 08:20:00,
2013-12-01 03:30:00,31.2,25.7,30.31,SSE,158,0.0,14.0,80,0.00,,,0.00,Wunderground v.1.15,2013-12-01 08:30:00,
2013-12-01 03:40:00,30.6,24.6,30.31,West,277,2.0,2.0,78,0.00,,,0.00,Wunderground v.1.15,2013-12-01 08:40:00,
2013-12-01 03:50:00,30.1,24.4,30.30,West,276,0.0,14.0,79,0.00,,,0.00,Wunderground v.1.15,2013-12-01 08:50:00,
2013-12-01 04:00:00,29.8,24.1,30.29,West,276,0.0,14.0,79,0.00,,,0.00,Wunderground v.1.15,2013-12-01 09:00:00,
2013-12-01 04:10:00,29.4,23.4,30.29,West,276,0.0,14.0,78,0.00,,,0.00,Wunderground v.1.15,2013-12-01 09:10:00,
2013-12-01 04:20:00,29.1,23.1,30.29,West,277,0.0,14.0,78,0.00,,,0.00,Wunderground v.1.15,2013-12-01 09:20:00,
2013-12-01 04:30:00,29.0,22.7,30.28,West,277,0.0,14.0,77,0.00,,,0.00,Wunderground v.1.15,2013-12-01 09:30:00,
2013-12-01 04:39:00,28.7,22.7,30.28,West,277,0.0,14.0,78,0.00,,,0.00,Wunderground v.1.15,2013-12-01 09:39:00,
2013-12-01 04:50:00,28.5,22.8,30.28,West,276,0.0,14.0,79,0.00,,,0.00,Wunderground v.1.15,2013-12-01 09:50:00,
2013-12-01 05:00:00,28.1,22.7,30.27,West,277,0.0,14.0,80,0.00,,,0.00,Wunderground v.1.15,2013-12-01 10:00:00,
2013-12-01 05:10:00,27.6,22.5,30.27,West,277,0.0,14.0,81,0.00,,,0.00,Wunderground v.1.15,2013-12-01 10:10:00,
2013-12-01 05:20:00,27.3,22.2,30.26,West,277,0.0,14.0,81,0.00,,,0.00,Wunderground v.1.15,2013-12-01 10:20:00,
2013-12-01 05:30:00,27.0,21.9,30.26,West,276,0.0,14.0,81,0.00,,,0.00,Wunderground v.1.15,2013-12-01 10:30:00,
2013-12-01 05:40:00,26.9,22.4,30.26,West,277,0.0,14.0,83,0.00,,,0.00,Wunderground v.1.15,2013-12-01 10:40:00,
2013-12-01 05:50:00,26.6,21.8,30.26,West,277,0.0,14.0,82,0.00,,,0.00,Wunderground v.1.15,2013-12-01 10:50:00,
2013-12-01 06:00:00,26.7,22.2,30.25,West,277,0.0,14.0,83,0.00,,,0.00,Wunderground v.1.15,2013-12-01 11:00:00,
2013-12-01 06:10:00,26.6,22.1,30.25,West,277,0.0,0.0,83,0.00,,,0.00,Wunderground v.1.15,2013-12-01 11:10:00,
2013-12-01 06:20:00,26.3,22.1,30.25,West,276,0.0,0.0,84,0.00,,,0.00,Wunderground v.1.15,2013-12-01 11:20:00,
2013-12-01 06:30:00,26.3,22.4,30.25,West,277,0.0,0.0,85,0.00,,,0.00,Wunderground v.1.15,2013-12-01 11:30:00,
2013-12-01 06:40:00,26.4,22.8,30.25,West,277,0.0,0.0,86,0.00,,,0.00,Wunderground v.1.15,2013-12-01 11:40:00,
2013-12-01 06:50:00,26.7,23.4,30.25,West,277,0.0,0.0,87,0.00,,,0.00,Wunderground v.1.15,2013-12-01 11:50:00,
2013-12-01 07:00:00,26.7,23.4,30.24,West,277,0.0,0.0,87,0.00,,,0.00,Wunderground v.1.15,2013-12-01 12:00:00,
2013-12-01 07:10:00,26.7,23.6,30.24,West,277,0.0,0.0,88,0.00,,,0.00,Wunderground v.1.15,2013-12-01 12:10:00,
2013-12-01 07:20:00,27.0,24.2,30.24,West,277,0.0,0.0,89,0.00,,,0.00,Wunderground v.1.15,2013-12-01 12:20:00,
2013-12-01 07:30:00,27.0,23.9,30.25,West,277,0.0,0.0,88,0.00,,,0.00,Wunderground v.1.15,2013-12-01 12:30:00,
2013-12-01 07:40:00,27.0,23.9,30.25,West,277,0.0,0.0,88,0.00,,,0.00,Wunderground v.1.15,2013-12-01 12:40:00,
2013-12-01 07:50:00,27.0,24.2,30.24,West,277,0.0,0.0,89,0.00,,,0.00,Wunderground v.1.15,2013-12-01 12:50:00,
2013-12-01 08:00:00,27.0,23.9,30.24,West,277,0.0,0.0,88,0.00,,,0.00,Wunderground v.1.15,2013-12-01 13:00:00,
2013-12-01 08:10:00,27.3,24.5,30.24,West,277,0.0,0.0,89,0.00,,,0.00,Wunderground v.1.15,2013-12-01 13:10:00,
2013-12-01 08:20:00,27.5,24.4,30.24,West,276,0.0,0.0,88,0.00,,,0.00,Wunderground v.1.15,2013-12-01 13:20:00,
2013-12-01 08:30:00,27.5,24.1,30.24,West,277,0.0,0.0,87,0.00,,,0.00,Wunderground v.1.15,2013-12-01 13:30:00,
2013-12-01 08:39:00,27.8,24.2,30.24,West,277,0.0,0.0,86,0.00,,,0.00,Wunderground v.1.15,2013-12-01 13:39:00,
2013-12-01 08:50:00,27.6,23.4,30.24,West,276,0.0,0.0,84,0.00,,,0.00,Wunderground v.1.15,2013-12-01 13:50:00,
2013-12-01 09:00:00,28.2,24.0,30.23,West,277,0.0,0.0,84,0.00,,,0.00,Wunderground v.1.15,2013-12-01 14:00:00,
2013-12-01 09:10:00,29.1,24.6,30.23,West,277,0.0,0.0,83,0.00,,,0.00,Wunderground v.1.15,2013-12-01 14:10:00,
2013-12-01 09:20:00,29.5,24.7,30.23,West,276,0.0,0.0,82,0.00,,,0.00,Wunderground v.1.15,2013-12-01 14:20:00,
2013-12-01 09:30:00,30.1,25.0,30.23,West,277,0.0,0.0,81,0.00,,,0.00,Wunderground v.1.15,2013-12-01 14:30:00,
2013-12-01 09:40:00,30.9,25.2,30.23,West,277,0.0,0.0,79,0.00,,,0.00,Wunderground v.1.15,2013-12-01 14:40:00,
2013-12-01 09:50:00,31.8,26.0,30.23,West,277,0.0,0.0,79,0.00,,,0.00,Wunderground v.1.15,2013-12-01 14:50:00,
2013-12-01 10:00:00,32.4,26.6,30.22,West,277,0.0,0.0,79,0.00,,,0.00,Wunderground v.1.15,2013-12-01 15:00:00,
2013-12-01 10:10:00,32.9,27.1,30.22,West,277,0.0,0.0,79,0.00,,,0.00,Wunderground v.1.15,2013-12-01 15:10:00,
2013-12-01 10:20:00,34.3,28.5,30.21,West,276,0.0,0.0,79,0.00,,,0.00,Wunderground v.1.15,2013-12-01 15:20:00,
2013-12-01 10:30:00,35.3,28.8,30.20,West,277,0.0,0.0,77,0.00,,,0.00,Wunderground v.1.15,2013-12-01 15:30:00,
2013-12-01 10:40:00,35.6,28.8,30.20,West,277,0.0,0.0,76,0.00,,,0.00,Wunderground v.1.15,2013-12-01 15:40:00,
2013-12-01 10:50:00,35.8,29.0,30.19,West,276,0.0,0.0,76,0.00,,,0.00,Wunderground v.1.15,2013-12-01 15:50:00,
2013-12-01 11:00:00,36.3,29.1,30.18,West,277,0.0,0.0,75,0.00,,,0.00,Wunderground v.1.15,2013-12-01 16:00:00,
2013-12-01 11:10:00,36.9,29.4,30.18,West,277,0.0,0.0,74,0.00,,,0.00,Wunderground v.1.15,2013-12-01 16:10:00,
2013-12-01 11:20:00,38.2,29.3,30.18,West,276,0.0,0.0,70,0.00,,,0.00,Wunderground v.1.15,2013-12-01 16:20:00,
2013-12-01 11:30:00,38.9,29.6,30.17,West,277,0.0,0.0,69,0.00,,,0.00,Wunderground v.1.15,2013-12-01 16:30:00,
2013-12-01 11:40:00,38.8,29.5,30.17,West,276,0.0,0.0,69,0.00,,,0.00,Wunderground v.1.15,2013-12-01 16:40:00,
2013-12-01 11:50:00,38.8,29.5,30.16,West,277,0.0,0.0,69,0.00,,,0.00,Wunderground v.1.15,2013-12-01 16:50:00,
2013-12-01 12:00:00,39.5,30.5,30.16,West,276,0.0,0.0,70,0.00,,,0.00,Wunderground v.1.15,2013-12-01 17:00:00,
2013-12-01 12:10:00,39.9,30.2,30.16,West,276,0.0,0.0,68,0.00,,,0.00,Wunderground v.1.15,2013-12-01 17:10:00,
2013-12-01 12:20:00,40.1,30.4,30.14,West,276,0.0,0.0,68,0.00,,,0.00,Wunderground v.1.15,2013-12-01 17:20:00,
2013-12-01 12:30:00,40.3,30.2,30.13,SSW,196,0.0,0.0,67,0.00,,,0.00,Wunderground v.1.15,2013-12-01 17:30:00,
2013-12-01 12:40:00,40.1,29.6,30.13,SSW,196,0.0,0.0,66,0.00,,,0.00,Wunderground v.1.15,2013-12-01 17:40:00,
2013-12-01 12:50:00,39.9,29.1,30.13,SSW,196,0.0,0.0,65,0.00,,,0.00,Wunderground v.1.15,2013-12-01 17:50:00,
2013-12-01 13:00:00,40.2,29.4,30.12,WSW,237,0.0,5.0,65,0.00,,,0.00,Wunderground v.1.15,2013-12-01 18:00:00,
2013-12-01 13:10:00,40.3,29.5,30.12,SW,229,1.0,1.0,65,0.00,,,0.00,Wunderground v.1.15,2013-12-01 18:10:00,
2013-12-01 13:19:00,40.1,28.9,30.12,SW,229,1.0,1.0,64,0.00,,,0.00,Wunderground v.1.15,2013-12-01 18:19:00,
2013-12-01 13:30:00,39.9,30.2,30.12,SW,229,1.0,3.0,68,0.00,,,0.00,Wunderground v.1.15,2013-12-01 18:30:00,
2013-12-01 13:40:00,39.8,29.7,30.12,SW,229,0.0,3.0,67,0.00,,,0.00,Wunderground v.1.15,2013-12-01 18:40:00,
2013-12-01 13:50:00,39.5,29.8,30.11,SW,229,1.0,1.0,68,0.00,,,0.00,Wunderground v.1.15,2013-12-01 18:50:00,
2013-12-01 14:00:00,38.9,29.6,30.10,SW,229,1.0,3.0,69,0.00,,,0.00,Wunderground v.1.15,2013-12-01 19:00:00,
2013-12-01 14:10:00,38.6,29.7,30.10,WNW,295,2.0,3.0,70,0.00,,,0.00,Wunderground v.1.15,2013-12-01 19:10:00,
2013-12-01 14:20:00,38.5,29.9,30.10,WNW,295,1.0,3.0,71,0.00,,,0.00,Wunderground v.1.15,2013-12-01 19:20:00,
2013-12-01 14:30:00,38.2,30.0,30.10,West,262,2.0,3.0,72,0.00,,,0.00,Wunderground v.1.15,2013-12-01 19:30:00,
2013-12-01 14:40:00,37.8,29.2,30.10,West,274,3.0,3.0,71,0.00,,,0.00,Wunderground v.1.15,2013-12-01 19:40:00,
2013-12-01 14:50:00,37.8,29.2,30.10,West,274,1.0,1.0,71,0.00,,,0.00,Wunderground v.1.15,2013-12-01 19:50:00,
2013-12-01 15:00:00,37.8,29.9,30.10,West,274,1.0,3.0,73,0.00,,,0.00,Wunderground v.1.15,2013-12-01 20:00:00,
2013-12-01 15:10:00,37.6,29.4,30.10,NW,304,1.0,1.0,72,0.00,,,0.00,Wunderground v.1.15,2013-12-01 20:10:00,
2013-12-01 15:20:00,37.3,29.8,30.10,NW,304,0.0,3.0,74,0.00,,,0.00,Wunderground v.1.15,2013-12-01 20:20:00,
2013-12-01 15:29:00,37.0,29.8,30.10,NW,304,0.0,3.0,75,0.00,,,0.00,Wunderground v.1.15,2013-12-01 20:29:00,
2013-12-01 15:40:00,36.9,29.7,30.10,NW,304,0.0,3.0,75,0.00,,,0.00,Wunderground v.1.15,2013-12-01 20:40:00,
2013-12-01 15:50:00,36.6,29.7,30.10,NW,304,0.0,3.0,76,0.00,,,0.00,Wunderground v.1.15,2013-12-01 20:50:00,
2013-12-01 16:00:00,36.3,29.8,30.09,NW,304,0.0,3.0,77,0.00,,,0.00,Wunderground v.1.15,2013-12-01 21:00:00,
2013-12-01 16:09:00,35.8,29.9,30.09,NW,304,0.0,3.0,79,0.00,,,0.00,Wunderground v.1.15,2013-12-01 21:09:00,
2013-12-01 16:20:00,35.5,29.6,30.09,NW,304,0.0,3.0,79,0.00,,,0.00,Wunderground v.1.15,2013-12-01 21:20:00,
2013-12-01 16:30:00,35.0,29.8,30.09,NW,304,0.0,3.0,81,0.00,,,0.00,Wunderground v.1.15,2013-12-01 21:30:00,
2013-12-01 16:40:00,34.6,29.7,30.09,NW,304,0.0,3.0,82,0.00,,,0.00,Wunderground v.1.15,2013-12-01 21:40:00,
2013-12-01 16:50:00,34.4,29.5,30.10,NW,304,0.0,3.0,82,0.00,,,0.00,Wunderground v.1.15,2013-12-01 21:50:00,
2013-12-01 17:00:00,34.1,29.2,30.10,NW,304,0.0,3.0,82,0.00,,,0.00,Wunderground v.1.15,2013-12-01 22:00:00,
2013-12-01 17:09:00,34.0,29.7,30.10,NW,304,0.0,3.0,84,0.00,,,0.00,Wunderground v.1.15,2013-12-01 22:09:00,
2013-12-01 17:20:00,33.8,29.5,30.10,NW,304,0.0,3.0,84,0.00,,,0.00,Wunderground v.1.15,2013-12-01 22:20:00,
2013-12-01 17:30:00,33.8,29.5,30.10,NW,304,0.0,3.0,84,0.00,,,0.00,Wunderground v.1.15,2013-12-01 22:30:00,
2013-12-01 17:40:00,33.7,29.4,30.10,NW,304,0.0,3.0,84,0.00,,,0.00,Wunderground v.1.15,2013-12-01 22:40:00,
2013-12-01 17:50:00,33.7,29.7,30.10,NW,304,0.0,3.0,85,0.00,,,0.00,Wunderground v.1.15,2013-12-01 22:50:00,
2013-12-01 18:00:00,33.7,29.4,30.10,NW,304,0.0,3.0,84,0.00,,,0.00,Wunderground v.1.15,2013-12-01 23:00:00,
2013-12-01 18:10:00,33.7,29.7,30.10,NW,304,0.0,0.0,85,0.00,,,0.00,Wunderground v.1.15,2013-12-01 23:10:00,
2013-12-01 18:20:00,33.7,29.7,30.09,NW,304,0.0,0.0,85,0.00,,,0.00,Wunderground v.1.15,2013-12-01 23:20:00,
2013-12-01 18:30:00,34.0,30.0,30.09,NW,304,0.0,0.0,85,0.00,,,0.00,Wunderground v.1.15,2013-12-01 23:30:00,
2013-12-01 18:40:00,34.0,30.0,30.09,NW,304,0.0,0.0,85,0.00,,,0.00,Wunderground v.1.15,2013-12-01 23:40:00,
2013-12-01 18:50:00,33.8,29.5,30.09,NW,304,0.0,0.0,84,0.00,,,0.00,Wunderground v.1.15,2013-12-01 23:50:00,
2013-12-01 19:00:00,33.7,29.4,30.08,NW,304,0.0,0.0,84,0.00,,,0.00,Wunderground v.1.15,2013-12-02 00:00:00,
2013-12-01 19:10:00,33.5,29.5,30.08,NW,304,0.0,0.0,85,0.00,,,0.00,Wunderground v.1.15,2013-12-02 00:10:00,
2013-12-01 19:20:00,33.4,29.1,30.08,NW,304,0.0,0.0,84,0.00,,,0.00,Wunderground v.1.15,2013-12-02 00:20:00,
2013-12-01 19:29:00,33.1,28.8,30.07,NW,304,0.0,0.0,84,0.00,,,0.00,Wunderground v.1.15,2013-12-02 00:29:00,
2013-12-01 19:39:00,33.1,29.1,30.07,NW,304,0.0,0.0,85,0.00,,,0.00,Wunderground v.1.15,2013-12-02 00:39:00,
2013-12-01 19:50:00,33.1,29.4,30.07,NW,304,0.0,0.0,86,0.00,,,0.00,Wunderground v.1.15,2013-12-02 00:50:00,
2013-12-01 20:00:00,32.9,28.9,30.07,NW,304,0.0,0.0,85,0.00,,,0.00,Wunderground v.1.15,2013-12-02 01:00:00,
2013-12-01 20:10:00,32.8,29.4,30.07,NW,304,0.0,0.0,87,0.00,,,0.00,Wunderground v.1.15,2013-12-02 01:10:00,
2013-12-01 20:20:00,32.4,29.0,30.06,NW,304,0.0,0.0,87,0.00,,,0.00,Wunderground v.1.15,2013-12-02 01:20:00,
2013-12-01 20:30:00,32.2,28.5,30.05,NW,304,0.0,0.0,86,0.00,,,0.00,Wunderground v.1.15,2013-12-02 01:30:00,
2013-12-01 20:40:00,31.9,28.5,30.05,NW,304,0.0,0.0,87,0.00,,,0.00,Wunderground v.1.15,2013-12-02 01:40:00,
2013-12-01 20:50:00,31.5,28.4,30.05,NW,304,0.0,0.0,88,0.00,,,0.00,Wunderground v.1.15,2013-12-02 01:50:00,
2013-12-01 21:00:00,31.0,28.1,30.05,NW,304,0.0,0.0,89,0.00,,,0.00,Wunderground v.1.15,2013-12-02 02:00:00,
2013-12-01 21:10:00,30.9,28.0,30.05,NW,304,0.0,0.0,89,0.00,,,0.00,Wunderground v.1.15,2013-12-02 02:10:00,
2013-12-01 21:20:00,31.0,28.1,30.04,NW,304,0.0,0.0,89,0.00,,,0.00,Wunderground v.1.15,2013-12-02 02:20:00,
2013-12-01 21:30:00,31.3,28.4,30.04,NW,304,0.0,0.0,89,0.00,,,0.00,Wunderground v.1.15,2013-12-02 02:30:00,
2013-12-01 21:40:00,31.0,28.1,30.04,NW,304,0.0,0.0,89,0.00,,,0.00,Wunderground v.1.15,2013-12-02 02:40:00,
2013-12-01 21:50:00,31.0,28.4,30.05,NW,304,0.0,0.0,90,0.00,,,0.00,Wunderground v.1.15,2013-12-02 02:50:00,
2013-12-01 22:00:00,31.0,28.4,30.04,NW,304,0.0,0.0,90,0.00,,,0.00,Wunderground v.1.15,2013-12-02 03:00:00,
2013-12-01 22:10:00,30.9,28.6,30.04,NW,304,0.0,0.0,91,0.00,,,0.00,Wunderground v.1.15,2013-12-02 03:10:00,
2013-12-01 22:20:00,30.7,28.4,30.04,NW,304,0.0,0.0,91,0.00,,,0.00,Wunderground v.1.15,2013-12-02 03:20:00,
2013-12-01 22:30:00,30.7,28.4,30.04,NW,304,0.0,0.0,91,0.00,,,0.00,Wunderground v.1.15,2013-12-02 03:30:00,
2013-12-01 22:40:00,30.7,28.4,30.04,NW,304,0.0,0.0,91,0.00,,,0.00,Wunderground v.1.15,2013-12-02 03:40:00,
2013-12-01 22:50:00,30.7,28.4,30.03,NW,304,0.0,0.0,91,0.00,,,0.00,Wunderground v.1.15,2013-12-02 03:50:00,
2013-12-01 23:00:00,30.7,28.4,30.04,NW,304,0.0,0.0,91,0.00,,,0.00,Wunderground v.1.15,2013-12-02 04:00:00,
2013-12-01 23:10:00,30.7,28.4,30.04,NW,304,0.0,0.0,91,0.00,,,0.00,Wunderground v.1.15,2013-12-02 04:10:00,
2013-12-01 23:20:00,30.4,28.1,30.04,NW,304,0.0,0.0,91,0.00,,,0.00,Wunderground v.1.15,2013-12-02 04:20:00,
2013-12-01 23:30:00,30.1,27.8,30.03,NW,304,0.0,0.0,91,0.00,,,0.00,Wunderground v.1.15,2013-12-02 04:30:00,
2013-12-01 23:40:00,30.0,28.0,30.03,NW,304,0.0,0.0,92,0.00,,,0.00,Wunderground v.1.15,2013-12-02 04:40:00,
2013-12-01 23:50:00,30.1,28.1,30.03,NW,304,0.0,0.0,92,0.00,,,0.00,Wunderground v.1.15,2013-12-02 04:50:00,